Location: Beuerbach
(48.1459°N, 10.9174°E)
Time: 02:03:34
(UTC+00:00)

EXPRESS MD2 - Pass Details

Date: 23 May 2024
Orbit: 262 x 3335 km, 49.9° (Epoch: 13 June)

Event Time Altitude Azimuth Distance (km) Brightness Sun altitude
Exits shadow 01:27:34 34° 190° (S) 661 3.2 -14.9°
Maximum altitude 01:28:21 43° 148° (SSE) 599 3.3 -14.8°
Drops below altitude 10° 01:32:19 10° 76° (ENE) 1,989 6.9 -14.5°
Sets 01:35:32 0° 71° (ENE) 3,368 8.3 -14.2°
